Weather History for Aberdeen, SD

Change the Weather History Date:

Saturday, October 13, 2012

  Actual Average Record
Temperature  
Mean Temperature 54 °F 47 °F  
Max Temperature 74 °F 59 °F 87 °F (1958)
Min Temperature 34 °F 34 °F 10 °F (1909)
Degree Days  
Heating Degree Days 11 18  
Month to date heating degree days 274 206  
Since 1 July heating degree days 516 480  
Cooling Degree Days 0 0  
Month to date cooling degree days 0 0  
Year to date cooling degree days 764 523  
Growing Degree Days 4 (Base 50)    
Moisture  
Dew Point 34 °F    
Average Humidity 56    
Maximum Humidity 89    
Minimum Humidity 22    
Precipitation  
Precipitation 0.00 in 0.07 in 0.77 in (1984)
Month to date precipitation 0.02 0.94  
Year to date precipitation 12.47 19.42  
Snow  
Snow 0.00 in - - ()
Month to date snowfall T  
Since 1 July snowfall T  
Snow Depth 0.00 in    
Sea Level Pressure  
Sea Level Pressure 29.73 in    
Wind  
Wind Speed 8 mph (West)    
Max Wind Speed 20 mph    
Max Gust Speed 24 mph    
Visibility 10 miles    
Events      
T = Trace of Precipitation, MM = Missing Value Source: NWS Daily Summary

Daily Weather History Graph

Daily Weather History Graph

Search for Another Location

Airport:

Trip Planner

Search our weather history database for the weather conditions in past years. The results will help you decide how hot, cold, wet, or windy it might be!

Date:

Astronomy

Oct. 13, 2012 Rise Set
Actual Time 7:47 AM CDT 6:50 PM CDT
Civil Twilight 7:18 AM CDT 7:20 PM CDT
Nautical Twilight 6:43 AM CDT 7:54 PM CDT
Astronomical Twilight 6:09 AM CDT 8:29 PM CDT
Moon 5:35 AM CDT (10/13) 5:38 PM CDT (10/13)
Length of Visible Light 12h 02m
Length of Day
11h 02m
Waning Crescent, 5% of the Moon is Illuminated
Oct 13
Waning Crescent
Oct 15
New
Oct 21
First Quarter
Oct 29
Full
Nov 6
Last Quarter

Hourly Weather History & Observations

Time (CDT) Temp. Windchill Dew Point Humidity Pressure Visibility Wind Dir Wind Speed Gust Speed Precip Events Conditions
12:17 AM 48.2 °F - 32.0 °F 54% 29.80 in 10.0 mi South 20.7 mph 29.9 mph N/A   Scattered Clouds
12:53 AM 46.9 °F - 32.0 °F 56% 29.81 in 10.0 mi South 15.0 mph - N/A   Clear
1:53 AM 45.0 °F 38.5 °F 34.0 °F 65% 29.77 in 10.0 mi South 13.8 mph - N/A   Clear
2:53 AM 44.1 °F 38.1 °F 35.1 °F 71% 29.75 in 10.0 mi South 11.5 mph - N/A   Clear
3:53 AM 37.0 °F 31.0 °F 30.9 °F 79% 29.74 in 10.0 mi South 8.1 mph - N/A   Clear
4:53 AM 37.0 °F 29.8 °F 30.9 °F 79% 29.73 in 10.0 mi South 10.4 mph - N/A   Clear
5:53 AM 37.9 °F 31.5 °F 33.1 °F 83% 29.71 in 10.0 mi SSE 9.2 mph - N/A   Clear
6:53 AM 41.0 °F 34.3 °F 35.1 °F 79% 29.70 in 10.0 mi South 11.5 mph - N/A   Clear
7:53 AM 37.0 °F - 33.1 °F 86% 29.71 in 10.0 mi Calm Calm - N/A   Clear
8:53 AM 34.0 °F 31.0 °F 30.9 °F 89% 29.70 in 10.0 mi South 3.5 mph - N/A   Clear
9:53 AM 44.1 °F 42.5 °F 36.0 °F 73% 29.72 in 10.0 mi SW 3.5 mph - N/A   Clear
10:53 AM 48.9 °F - 37.9 °F 66% 29.70 in 10.0 mi WSW 5.8 mph - N/A   Clear
11:53 AM 55.9 °F - 37.0 °F 49% 29.68 in 10.0 mi WNW 5.8 mph - N/A   Clear
12:53 PM 62.1 °F - 37.9 °F 41% 29.67 in 10.0 mi WNW 4.6 mph - N/A   Clear
1:53 PM 66.9 °F - 37.9 °F 34% 29.67 in 10.0 mi NNW 6.9 mph - N/A   Clear
2:53 PM 69.8 °F - 37.4 °F 31% 29.66 in 10.0 mi NE 3.5 mph - N/A   Clear
3:53 PM 72.0 °F - 36.0 °F 27% 29.68 in 10.0 mi NNW 3.5 mph - N/A   Clear
4:53 PM 73.9 °F - 35.1 °F 24% 29.68 in 10.0 mi North 5.8 mph - N/A   Clear
5:53 PM 72.0 °F - 30.0 °F 21% 29.70 in 10.0 mi NNW 16.1 mph 24.2 mph N/A   Clear
7:53 PM 57.9 °F - 35.1 °F 42% 29.77 in 10.0 mi North 11.5 mph - N/A   Clear
8:53 PM 53.6 °F - 35.6 °F 51% 29.79 in 10.0 mi North 9.2 mph - N/A   Clear
9:53 PM 51.1 °F - 35.1 °F 54% 29.83 in 10.0 mi North 11.5 mph - N/A   Clear
10:53 PM 48.0 °F - 34.0 °F 58% 29.84 in 10.0 mi North 10.4 mph - N/A   Clear
11:53 PM 44.1 °F 39.0 °F 33.1 °F 65% 29.88 in 10.0 mi North 9.2 mph - N/A   Clear